TimeEDT,TemperatureF,Dew PointF,Humidity,Sea Level PressureIn,VisibilityMPH,Wind Direction,Wind SpeedMPH,Gust SpeedMPH,PrecipitationIn,Events,Conditions,WindDirDegrees,DateUTC
12:54 AM,34.0,19.9,56,29.71,10.0,West,5.8,-,N/A,,Scattered Clouds,260,2013-03-24 04:54:00
1:54 AM,34.0,21.0,59,29.70,10.0,WNW,12.7,26.5,N/A,,Clear,290,2013-03-24 05:54:00
2:54 AM,34.0,19.9,56,29.71,10.0,West,9.2,16.1,N/A,,Clear,260,2013-03-24 06:54:00
3:54 AM,33.1,21.0,61,29.70,10.0,WNW,6.9,-,N/A,,Clear,300,2013-03-24 07:54:00
4:54 AM,33.1,19.9,59,29.70,10.0,NNW,9.2,-,N/A,,Clear,330,2013-03-24 08:54:00
5:54 AM,28.9,19.0,67,29.71,10.0,NE,4.6,-,N/A,,Clear,40,2013-03-24 09:54:00
6:54 AM,27.0,19.9,75,29.75,10.0,SE,3.5,-,N/A,,Clear,140,2013-03-24 10:54:00
7:54 AM,34.0,21.0,59,29.76,10.0,WNW,10.4,17.3,N/A,,Clear,290,2013-03-24 11:54:00
8:54 AM,37.0,21.0,52,29.78,10.0,WNW,10.4,-,N/A,,Clear,300,2013-03-24 12:54:00
9:54 AM,39.0,19.0,45,29.79,10.0,WNW,6.9,-,N/A,,Clear,290,2013-03-24 13:54:00
10:54 AM,39.9,19.9,45,29.77,10.0,NNE,5.8,-,0.00,,Partly Cloudy,20,2013-03-24 14:54:00
11:54 AM,39.9,21.0,47,29.76,10.0,NNE,5.8,-,N/A,,Overcast,20,2013-03-24 15:54:00
12:54 PM,42.1,21.0,43,29.77,10.0,Variable,4.6,-,N/A,,Partly Cloudy,0,2013-03-24 16:54:00
1:54 PM,43.0,21.0,42,29.76,10.0,NNE,9.2,-,N/A,,Mostly Cloudy,20,2013-03-24 17:54:00
2:54 PM,43.0,19.9,40,29.77,10.0,NE,9.2,-,N/A,,Mostly Cloudy,40,2013-03-24 18:54:00
3:54 PM,42.1,21.0,43,29.76,10.0,North,10.4,20.7,N/A,,Clear,10,2013-03-24 19:54:00
4:54 PM,41.0,21.0,45,29.77,10.0,North,13.8,21.9,N/A,,Partly Cloudy,350,2013-03-24 20:54:00
5:54 PM,39.9,21.0,47,29.78,10.0,North,10.4,-,N/A,,Clear,360,2013-03-24 21:54:00
6:54 PM,39.0,21.9,50,29.79,10.0,NNW,6.9,-,N/A,,Overcast,340,2013-03-24 22:54:00
7:54 PM,36.0,21.9,57,29.80,10.0,NW,3.5,-,N/A,,Partly Cloudy,310,2013-03-24 23:54:00
8:54 PM,30.9,21.9,69,29.80,10.0,North,4.6,-,N/A,,Clear,350,2013-03-25 00:54:00
9:54 PM,27.0,21.0,78,29.81,10.0,Calm,Calm,-,N/A,,Clear,0,2013-03-25 01:54:00
10:54 PM,26.1,21.9,84,29.80,10.0,Calm,Calm,-,N/A,,Clear,0,2013-03-25 02:54:00
11:54 PM,23.0,19.9,88,29.79,10.0,Calm,Calm,-,N/A,,Clear,0,2013-03-25 03:54:00